Regional Weather Roundup
Issued by NWS

Home | Current Version | Previous Version | Text Only | Print | Product List | Glossary On
Versions: 1 2 3 4 5 6 7 8 9 10 11 12 13 14 15 16 17 18 19 20 21 22 23 24 25 26 27 28 29 30 31 32 33 34 35 36 37 38 39 40 41 42 43 44 45 46 47
000
ASUS42 KFFC 251903
RWRGA
WEATHER ROUNDUP FOR GEORGIA
NATIONAL WEATHER SERVICE PEACHTREE CITY GA
200 PM EST THU DEC 25 2014

NOTE: "FAIR" INDICATES FEW OR NO CLOUDS BELOW 12,000 FEET WITH NO
SIGNIFICANT WEATHER AND/OR OBSTRUCTIONS TO VISIBILITY.

* = USE WITH CAUTION. THE STATIONS MARKED WITH AN ASTERISK MAY NOT
REPORT WEATHER SUCH AS PRECIPITATION, FOG, OR THUNDER AND ARE NOT
QUALITY CONTROLLED BY NWS.

THE REMARK "TC" DENOTES TEMPERATURE READING IN DEGREES CELSIUS.

GAZ001>058-252000-
NORTH GEORGIA

CITY           SKY/WX    TMP DP  RH WIND       PRES   REMARKS
ATLANTA        SUNNY     50  35  56 W8        30.18F
ATHENS         SUNNY     54  34  46 VRB5      30.15F
CHAMBLEE       SUNNY     50  34  54 NW5       30.17F
PEACHTREE CITY SUNNY     52  35  52 NW9       30.19F
ROME           SUNNY     49  34  56 CALM      30.18F
WEST ATLANTA   SUNNY     50  34  54 VRB7      30.18F
GAINESVILLE    SUNNY     50  33  52 VRB6      30.16F
CARTERSVILLE   SUNNY     50  32  50 N6        30.19F


CITY           SKY/WX    TMP DP  RH WIND       PRES   REMARKS
DALTON*        SUNNY     48  36  61 CALM      30.18F
LAWRENCEVILLE* SUNNY     50  30  46 W9        30.16F
MARIETTA       SUNNY     50  35  54 NW9       30.17F
KENNESAW*      SUNNY     48  32  53 W7        30.19F
$$

GAZ059>098-102>109-252000-
CENTRAL GEORGIA

CITY           SKY/WX    TMP DP  RH WIND       PRES   REMARKS
AUGUSTA-BUSH   SUNNY     57  35  43 VRB7      30.15F
AUGUSTA-DANIEL SUNNY     56  35  45 W9        30.15F
COLUMBUS       SUNNY     54  34  46 VRB5      30.18F
MACON          SUNNY     56  35  45 NW3       30.17F
ROBINS AFB     SUNNY     57  35  44 NW8       30.18F


CITY           SKY/WX    TMP DP  RH WIND       PRES   REMARKS
LAGRANGE*      SUNNY     54  39  56 NW5       30.20S
SYLVANIA*      SUNNY     57  41  56 NW10      30.17S
MILLEDGEVILLE* SUNNY     54  39  58 CALM      30.17F
$$

GAZ099>101-110>166-252000-
SOUTH GEORGIA

CITY           SKY/WX    TMP DP  RH WIND       PRES   REMARKS
SAVANNAH       MOSUNNY   58  37  45 W10       30.16F
VALDOSTA       SUNNY     57  39  51 N8        30.19F
ALMA           SUNNY     58  37  45 NW10      30.18F
ST SIMONS      PTSUNNY   56  40  55 MISG      30.17F
FT STEWART     SUNNY     59  38  45 NW8       30.15F
ALBANY         SUNNY     56  34  43 NW10      30.22F
HUNTER AFB     SUNNY     59  40  48 NW9       30.14F
MOODY AFB      SUNNY     58  39  50 NW8       30.19F
BRUNSWICK      PTSUNNY   59  41  51 W10G16    30.18F


CITY           SKY/WX    TMP DP  RH WIND       PRES   REMARKS
BAINBRIDGE*    SUNNY     59  39  47 N6        30.21F
MOULTRIE*      SUNNY     54  39  58 W3        30.20F
VIDALIA*       SUNNY     57  39  51 W5        30.18F
WAYCROSS*      SUNNY     61  42  48 NW8       30.18F
DOUGLAS*       SUNNY     59  36  41 W8        30.20F
$$


USA.gov is the U.S. government's official web portal to all federal, state and local government web resources and services.